Back to catalog

STARLINK-31924

AliveCommunicationsVLEO
NORAD 59904·PAYLOAD·🇺🇸 United States

Launched May 28, 2024 from Cape Canaveral Space Force Station

Loading…

Next Passes (next 24 hours)

TLE

FreshSource: CelesTrak SupGP

Epoch: Sep 14, 2026, 13:55 UTC

1 59904C 24100V   26257.58034722  .00038429  00000+0  13922-2 0  2578
2 59904  42.9988 138.5343 0001470 265.5349 195.1114 15.27552618    17

Track STARLINK-31924 in real time with AllMySat

Download on the App Store